Kenosha, WI

12:33 AM CST on December 04, 2016 (GMT -0600)
Kenosha Regional

Weather History for KENW - December, 2013

Change the Weather History Date:

Tuesday, December 10, 2013

  Actual Average Record
Temperature  
Mean Temperature 8 °F -  
Max Temperature 19 °F 35 °F 59 °F (2015)
Min Temperature -4 °F 20 °F -8 °F (1958)
Degree Days  
Heating Degree Days 58    
Moisture  
Dew Point 1 °F    
Average Humidity 66    
Maximum Humidity 76    
Minimum Humidity 54    
Precipitation  
Precipitation 0.00 in - - ()
Sea Level Pressure  
Sea Level Pressure 30.08 in    
Wind  
Wind Speed 14 mph (WSW)    
Max Wind Speed 25 mph    
Max Gust Speed 34 mph    
Visibility 7 miles    
Events Snow    
Averages and records for this station are not official NWS values.
T = Trace of Precipitation, MM = Missing Value Source: NWS Daily Summary

Daily Weather History Graph

Daily Weather History Graph

Search for Another Location

Airport or City:

Trip Planner

Search our weather history database for the weather conditions in past years. The results will help you decide how hot, cold, wet, or windy it might be!

Date:

Astronomy

Dec. 10, 2013 Rise Set
Actual Time 7:10 AM CST 4:18 PM CST
Civil Twilight 6:39 AM CST 4:50 PM CST
Nautical Twilight 6:03 AM CST 5:25 PM CST
Astronomical Twilight 5:29 AM CST 5:59 PM CST
Moon 12:26 PM CST (12/10) 12:21 AM CST (12/10)
Length of Visible Light 10h 11m
Length of Day
9h 07m
Waxing Gibbous, 62% of the Moon is Illuminated
Dec 10
Waxing Gibbous
Dec 17
Full
Dec 25
Last Quarter
Jan 1
New
Jan 7
First Quarter

Hourly Weather History & Observations

Time (CST) Temp. Windchill Dew Point Humidity Pressure Visibility Wind Dir Wind Speed Gust Speed Precip Events Conditions
12:53 AM -4.0 °F -19.0 °F -11.9 °F 69% 30.22 in 9.0 mi SW 8.1 mph - N/A   Clear
1:53 AM -4.0 °F -20.2 °F -9.9 °F 76% 30.21 in 9.0 mi SSW 9.2 mph - N/A   Clear
2:53 AM -4.0 °F -17.8 °F -9.9 °F 76% 30.19 in 9.0 mi SW 6.9 mph - N/A   Clear
3:53 AM -4.0 °F -19.0 °F -9.9 °F 76% 30.14 in 8.0 mi SSW 8.1 mph - N/A   Clear
4:53 AM -0.9 °F -16.4 °F -8.0 °F 72% 30.09 in 9.0 mi SSW 9.2 mph - N/A   Overcast
5:53 AM 1.9 °F -16.2 °F -6.0 °F 69% 30.03 in 9.0 mi South 13.8 mph - N/A   Overcast
6:53 AM 6.1 °F -13.3 °F -4.0 °F 63% 30.01 in 10.0 mi SSW 18.4 mph - N/A   Mostly Cloudy
7:47 AM 6.8 °F -9.3 °F -2.2 °F 67% 29.95 in 2.5 mi SW 12.7 mph - 0.00 in Snow Light Snow
7:51 AM 6.8 °F -9.3 °F -2.2 °F 67% 29.94 in 1.8 mi SW 12.7 mph - 0.00 in Snow Light Snow
7:53 AM 7.0 °F -9.1 °F -2.0 °F 67% 29.99 in 2.0 mi SW 12.7 mph - 0.00 in Snow Light Snow
8:53 AM 10.9 °F -8.3 °F 3.9 °F 73% 29.99 in 2.0 mi SW 21.9 mph 28.8 mph 0.00 in Snow Light Snow
9:12 AM 12.0 °F -6.5 °F 3.9 °F 70% 29.94 in 0.8 mi WSW 20.7 mph 29.9 mph 0.00 in Snow Light Snow
9:22 AM 12.0 °F -6.5 °F 5.0 °F 73% 29.94 in 1.0 mi WSW 20.7 mph 32.2 mph 0.00 in Snow Light Snow
9:34 AM 12.9 °F -6.9 °F 5.0 °F 71% 29.94 in 1.0 mi WSW 25.3 mph 31.1 mph 0.00 in Snow Light Snow
9:53 AM 14.0 °F -3.4 °F 6.1 °F 71% 30.01 in 4.0 mi WSW 19.6 mph 33.4 mph 0.00 in Snow Light Snow
10:42 AM 16.0 °F -1.7 °F 7.0 °F 68% 29.95 in 4.0 mi WSW 21.9 mph 26.5 mph 0.00 in Snow Light Snow
10:53 AM 17.1 °F 0.1 °F 8.1 °F 68% 30.01 in 4.0 mi WSW 20.7 mph 27.6 mph 0.00 in Snow Light Snow
11:53 AM 19.9 °F 3.9 °F 9.0 °F 62% 30.00 in 6.0 mi West 20.7 mph 31.1 mph 0.00 in Snow Light Snow
12:53 PM 19.9 °F 3.9 °F 8.1 °F 60% 30.01 in 10.0 mi West 20.7 mph 28.8 mph 0.00 in   Mostly Cloudy
1:10 PM 19.9 °F 3.2 °F 8.1 °F 60% 29.97 in 10.0 mi West 23.0 mph 34.5 mph N/A   Mostly Cloudy
1:49 PM 19.4 °F 4.5 °F 6.8 °F 58% 29.98 in 10.0 mi West 17.3 mph 29.9 mph 0.00 in   Scattered Clouds
1:53 PM 19.9 °F 6.2 °F 7.0 °F 57% 30.04 in 10.0 mi West 15.0 mph 26.5 mph 0.00 in   Partly Cloudy
2:53 PM 19.0 °F 3.6 °F 5.0 °F 54% 30.10 in 8.0 mi West 18.4 mph 31.1 mph N/A   Clear
3:53 PM 17.1 °F 0.6 °F 3.9 °F 56% 30.13 in 10.0 mi West 19.6 mph - N/A   Clear
4:53 PM 15.1 °F -0.1 °F 1.9 °F 56% 30.17 in 10.0 mi West 15.0 mph - N/A   Clear
5:53 PM 14.0 °F -1.4 °F 1.9 °F 59% 30.17 in 10.0 mi West 15.0 mph - N/A   Clear
6:53 PM 12.0 °F -1.3 °F 1.0 °F 61% 30.21 in 10.0 mi West 10.4 mph - N/A   Clear
7:53 PM 12.0 °F -2.7 °F 1.9 °F 64% 30.25 in 10.0 mi WSW 12.7 mph - N/A   Clear
8:53 PM 12.9 °F -0.9 °F 3.0 °F 65% 30.26 in 10.0 mi West 11.5 mph - N/A   Overcast
9:53 PM 12.9 °F -1.6 °F 3.0 °F 65% 30.27 in 10.0 mi WSW 12.7 mph - N/A   Overcast
10:53 PM 14.0 °F -0.2 °F 3.0 °F 62% 30.29 in 10.0 mi West 12.7 mph - N/A   Overcast
11:53 PM 14.0 °F -0.2 °F 3.0 °F 62% 30.29 in 10.0 mi West 12.7 mph - N/A   Overcast